Simultaneous Nadir Overpasses (SNOs) Predictions

Prediction of SNOs between FY3D and NOAA-20 Satellite Orbit:

Table of predicted SNOs for the next 14.0 days since TLE Epoch: 2/10/2024
Index Date (FY3D) Time (FY3D) Lat,Lon (FY3D) SZA (FY3D ) Date (NOAA-20) Time (NOAA-20) Lat,Lon (NOAA-20) SZA (NOAA-20 ) Distance(km) Time Diff (sec)
1 02/23/2024 05:45:21 -81.14,-143.93 84.41 02/23/2024 05:46:37 -81.14,-144.03 84.43 1.79 76
2 02/23/2024 07:26:52 -81.14,-169.30 84.43 02/23/2024 07:28:07 -81.14,-169.44 84.45 2.43 75
3 02/23/2024 08:17:37 81.14, -2.05 95.57 02/23/2024 08:18:52 81.14, -2.15 95.54 1.84 75
4 02/23/2024 09:08:23 -81.14, 165.32 84.46 02/23/2024 09:09:37 -81.14, 165.14 84.47 3.08 74
5 02/23/2024 09:59:08 81.14, -27.42 95.54 02/23/2024 10:00:22 81.14, -27.57 95.52 2.50 74
6 02/23/2024 10:49:54 -81.14, 139.95 84.48 02/23/2024 10:51:06 -81.13, 140.11 84.55 2.87 72
7 02/23/2024 11:40:39 81.14, -52.80 95.52 02/23/2024 11:41:52 81.14, -52.98 95.50 3.16 73
8 02/23/2024 12:31:25 -81.14, 114.57 84.51 02/23/2024 12:32:36 -81.13, 114.70 84.57 2.23 71
9 02/23/2024 13:22:10 81.14, -78.17 95.49 02/23/2024 13:23:21 81.13, -78.01 95.43 2.80 71
10 02/23/2024 14:12:56 -81.14, 89.20 84.54 02/23/2024 14:14:06 -81.13, 89.29 84.59 1.59 70
11 02/23/2024 15:03:41 81.14,-103.55 95.46 02/23/2024 15:04:51 81.13,-103.43 95.41 2.14 70
12 02/23/2024 15:54:27 -81.14, 63.82 84.56 02/23/2024 15:55:36 -81.13, 63.87 84.61 0.94 69
13 02/23/2024 16:45:12 81.14,-128.93 95.44 02/23/2024 16:46:21 81.14,-128.84 95.39 1.48 69
14 02/23/2024 17:35:58 -81.14, 38.44 84.59 02/23/2024 17:37:06 -81.14, 38.46 84.63 0.31 68
15 02/23/2024 18:26:43 81.14,-154.30 95.41 02/23/2024 18:27:51 81.14,-154.25 95.37 0.83 68
16 02/23/2024 19:17:29 -81.14, 13.07 84.62 02/23/2024 19:18:36 -81.14, 13.05 84.65 0.36 67
17 02/23/2024 20:08:14 81.14,-179.68 95.38 02/23/2024 20:09:21 81.14,-179.67 95.34 0.21 67
18 02/23/2024 20:59:00 -81.14, -12.31 84.64 02/23/2024 21:00:06 -81.14, -12.37 84.67 1.00 66
19 02/23/2024 21:49:45 81.14, 154.95 95.36 02/23/2024 21:50:51 81.14, 154.92 95.32 0.54 66
20 02/23/2024 22:40:31 -81.14, -37.68 84.67 02/23/2024 22:41:36 -81.14, -37.78 84.69 1.64 65
21 02/23/2024 23:31:16 81.14, 129.57 95.33 02/23/2024 23:32:21 81.14, 129.51 95.30 1.19 65
22 02/24/2024 00:22:02 -81.14, -63.06 84.70 02/24/2024 00:23:06 -81.14, -63.19 84.71 2.28 64
23 02/24/2024 01:12:47 81.14, 104.20 95.30 02/24/2024 01:13:51 81.14, 104.09 95.28 1.85 64
24 02/24/2024 02:03:33 -81.14, -88.43 84.72 02/24/2024 02:04:36 -81.14, -88.60 84.73 2.92 63



Historial Predications of SNOs between FY3D and NOAA-20
